{"data":{"norad_id":59513,"intl_designator":"2024-073C","name":"STARLINK-31658","alt_names":[],"object_type":"PAYLOAD","status":"ACTIVE","operator":null,"country":"US","launch_date":"2024-04-17","launch_site_code":"AFETR","launch_vehicle":null,"mission":null,"orbit_class":"UNKNOWN","rcs_meters":null,"size_class":null,"mass_kg":null,"dimensions":null,"purposes":["comms"],"wikipedia_slug":null,"has_3d_model":false,"image_url":null,"decayed_at":null,"tle_current":{"epoch":"2026-05-25T05:08:29.280192Z","epoch_age_seconds":63422,"freshness":"FRESH","line1":"1 59513U 24073C   26145.21422778  .00002984  00000+0  11795-3 0  9998","line2":"2 59513  43.0037 205.5775 0001489 291.1676  68.9017 15.27575029118337","mean_motion":15.27575029,"eccentricity":0.0001489,"inclination_deg":43.0037,"raan_deg":205.5775,"arg_perigee_deg":291.1676,"mean_anomaly_deg":68.9017,"bstar":0.00011795,"rev_number":11833,"period_min":94.267055474366,"perigee_km":482.04234821625,"apogee_km":484.0856138684,"semimajor_km":6861.2009810423,"source":"CELESTRAK","updated_at":"2026-05-25T13:38:18.974264Z"}}}